Time,TemperatureF,DewpointF,PressureIn,WindDirection,WindDirectionDegrees,WindSpeedMPH,WindSpeedGustMPH,Humidity,HourlyPrecipIn,Conditions,Clouds,dailyrainin,SolarRadiationWatts/m^2,SoftwareType,DateUTC
2013-02-17 00:01:00,38.0,29.0,-100.00,SSE,164,3.0,16.0,69,0.00,,,0.01,0.000000,,2013-02-17 07:01:00,
2013-02-17 00:11:00,38.0,29.0,-100.00,SSE,164,3.0,16.0,69,0.00,,,0.01,0.000000,,2013-02-17 07:11:00,
2013-02-17 00:42:00,37.0,28.0,-100.00,ENE,69,3.0,9.0,70,0.00,,,0.01,0.000000,,2013-02-17 07:42:00,
2013-02-17 00:52:00,37.0,28.0,-100.00,ENE,69,3.0,9.0,70,0.00,,,0.01,0.000000,,2013-02-17 07:52:00,
2013-02-17 01:01:00,37.0,28.0,-100.00,ENE,69,3.0,9.0,70,0.00,,,0.01,0.000000,,2013-02-17 08:01:00,
2013-02-17 01:11:00,37.0,28.0,-100.00,ENE,69,3.0,9.0,70,0.00,,,0.01,0.000000,,2013-02-17 08:11:00,
2013-02-17 01:42:00,35.0,31.0,-100.00,NNE,32,6.0,14.0,85,0.00,,,0.01,0.000000,,2013-02-17 08:42:00,
2013-02-17 01:52:00,35.0,31.0,-100.00,NNE,32,6.0,14.0,85,0.00,,,0.01,0.000000,,2013-02-17 08:52:00,
2013-02-17 02:01:00,35.0,31.0,-100.00,NNE,32,6.0,14.0,85,0.00,,,0.01,0.000000,,2013-02-17 09:01:00,
2013-02-17 02:11:00,35.0,31.0,-100.00,NNE,32,6.0,14.0,85,0.00,,,0.01,0.000000,,2013-02-17 09:11:00,
2013-02-17 02:42:00,32.0,29.0,-100.00,North,356,3.0,9.0,89,0.00,,,0.01,0.000000,,2013-02-17 09:42:00,
2013-02-17 02:52:00,32.0,29.0,-100.00,North,356,3.0,9.0,89,0.00,,,0.01,0.000000,,2013-02-17 09:52:00,
2013-02-17 03:01:00,32.0,29.0,-100.00,North,356,3.0,9.0,89,0.00,,,0.01,0.000000,,2013-02-17 10:01:00,
2013-02-17 03:11:00,32.0,29.0,-100.00,North,356,3.0,9.0,89,0.00,,,0.01,0.000000,,2013-02-17 10:11:00,
2013-02-17 03:42:00,32.0,26.0,-100.00,South,174,3.0,10.0,78,0.00,,,0.01,0.000000,,2013-02-17 10:42:00,
2013-02-17 03:52:00,32.0,26.0,-100.00,South,174,3.0,10.0,78,0.00,,,0.01,0.000000,,2013-02-17 10:52:00,
2013-02-17 04:01:00,32.0,26.0,-100.00,South,174,3.0,10.0,78,0.00,,,0.01,0.000000,,2013-02-17 11:01:00,
2013-02-17 04:11:00,32.0,26.0,-100.00,South,174,3.0,10.0,78,0.00,,,0.01,0.000000,,2013-02-17 11:11:00,
2013-02-17 04:42:00,32.0,27.0,-100.00,NNE,32,3.0,8.0,83,0.00,,,0.01,0.000000,,2013-02-17 11:42:00,
2013-02-17 04:52:00,32.0,27.0,-100.00,NNE,32,3.0,8.0,83,0.00,,,0.01,0.000000,,2013-02-17 11:52:00,
2013-02-17 05:02:00,32.0,27.0,-100.00,NNE,32,3.0,8.0,83,0.00,,,0.01,0.000000,,2013-02-17 12:02:00,
2013-02-17 05:11:00,32.0,27.0,-100.00,NNE,32,3.0,8.0,83,0.00,,,0.01,0.000000,,2013-02-17 12:11:00,
2013-02-17 05:32:00,35.0,24.0,-100.00,SSW,196,4.0,8.0,65,0.00,,,0.01,0.000000,,2013-02-17 12:32:00,
2013-02-17 05:42:00,35.0,24.0,-100.00,SSW,196,4.0,8.0,65,0.00,,,0.01,0.000000,,2013-02-17 12:42:00,
2013-02-17 05:52:00,35.0,24.0,-100.00,SSW,196,4.0,8.0,65,0.00,,,0.01,0.000000,,2013-02-17 12:52:00,
2013-02-17 06:02:00,35.0,24.0,-100.00,SSW,196,4.0,8.0,65,0.00,,,0.01,0.000000,,2013-02-17 13:02:00,
2013-02-17 06:11:00,35.0,24.0,-100.00,SSW,196,4.0,8.0,65,0.00,,,0.01,0.000000,,2013-02-17 13:11:00,
2013-02-17 07:42:00,31.0,28.0,-100.00,South,169,2.0,6.0,89,-99.99,,,0.01,0.000000,,2013-02-17 14:42:00,
2013-02-17 07:53:00,31.0,28.0,-100.00,South,169,2.0,6.0,89,-99.99,,,0.01,0.000000,,2013-02-17 14:53:00,
2013-02-17 08:01:00,31.0,28.0,-100.00,South,169,2.0,6.0,89,-99.99,,,0.01,0.000000,,2013-02-17 15:01:00,
2013-02-17 08:11:00,31.0,28.0,-100.00,South,169,2.0,6.0,89,-99.99,,,0.01,0.000000,,2013-02-17 15:11:00,
2013-02-17 08:42:00,32.0,27.0,-100.00,South,188,5.0,11.0,81,0.00,,,0.01,7.000000,,2013-02-17 15:42:00,
2013-02-17 08:52:00,32.0,27.0,-100.00,South,188,5.0,11.0,81,0.00,,,0.01,7.000000,,2013-02-17 15:52:00,
2013-02-17 09:01:00,32.0,27.0,-100.00,South,188,5.0,11.0,81,0.00,,,0.01,7.000000,,2013-02-17 16:01:00,
2013-02-17 09:11:00,32.0,27.0,-100.00,South,188,5.0,11.0,81,0.00,,,0.01,7.000000,,2013-02-17 16:11:00,
2013-02-17 09:32:00,34.0,26.0,-100.00,South,188,3.0,9.0,71,0.00,,,0.01,62.000000,,2013-02-17 16:32:00,
2013-02-17 09:42:00,34.0,26.0,-100.00,South,188,3.0,9.0,71,0.00,,,0.01,62.000000,,2013-02-17 16:42:00,
2013-02-17 09:52:00,34.0,26.0,-100.00,South,188,3.0,9.0,71,0.00,,,0.01,62.000000,,2013-02-17 16:52:00,
2013-02-17 10:02:00,34.0,26.0,-100.00,South,188,3.0,9.0,71,0.00,,,0.01,62.000000,,2013-02-17 17:02:00,
2013-02-17 10:11:00,34.0,26.0,-100.00,South,188,3.0,9.0,71,0.00,,,0.01,62.000000,,2013-02-17 17:11:00,
2013-02-17 10:32:00,36.0,22.0,-100.00,South,190,4.0,9.0,57,0.00,,,0.01,96.000000,,2013-02-17 17:32:00,
2013-02-17 10:42:00,36.0,22.0,-100.00,South,190,4.0,9.0,57,0.00,,,0.01,96.000000,,2013-02-17 17:42:00,
2013-02-17 10:52:00,36.0,22.0,-100.00,South,190,4.0,9.0,57,0.00,,,0.01,96.000000,,2013-02-17 17:52:00,
2013-02-17 11:01:00,36.0,22.0,-100.00,South,190,4.0,9.0,57,0.00,,,0.01,96.000000,,2013-02-17 18:01:00,
2013-02-17 11:11:00,36.0,22.0,-100.00,South,190,4.0,9.0,57,0.00,,,0.01,96.000000,,2013-02-17 18:11:00,
2013-02-17 11:42:00,38.0,25.0,-100.00,South,187,5.0,11.0,60,0.00,,,0.01,199.000000,,2013-02-17 18:42:00,
2013-02-17 11:52:00,38.0,25.0,-100.00,South,187,5.0,11.0,60,0.00,,,0.01,199.000000,,2013-02-17 18:52:00,
2013-02-17 12:01:00,38.0,25.0,-100.00,South,187,5.0,11.0,60,0.00,,,0.01,199.000000,,2013-02-17 19:01:00,
2013-02-17 12:11:00,38.0,25.0,-100.00,South,187,5.0,11.0,60,0.00,,,0.01,199.000000,,2013-02-17 19:11:00,
2013-02-17 12:42:00,39.0,24.0,-100.00,SSW,195,6.0,13.0,54,0.00,,,0.01,248.000000,,2013-02-17 19:42:00,
2013-02-17 12:52:00,39.0,24.0,-100.00,SSW,195,6.0,13.0,54,0.00,,,0.01,248.000000,,2013-02-17 19:52:00,
2013-02-17 13:01:00,39.0,24.0,-100.00,SSW,195,6.0,13.0,54,0.00,,,0.01,248.000000,,2013-02-17 20:01:00,
2013-02-17 13:11:00,39.0,24.0,-100.00,SSW,195,6.0,13.0,54,0.00,,,0.01,248.000000,,2013-02-17 20:11:00,
2013-02-17 13:42:00,40.0,22.0,-100.00,SW,222,4.0,12.0,48,0.00,,,0.01,235.000000,,2013-02-17 20:42:00,
2013-02-17 13:52:00,40.0,22.0,-100.00,SW,222,4.0,12.0,48,0.00,,,0.01,235.000000,,2013-02-17 20:52:00,
2013-02-17 14:01:00,40.0,22.0,-100.00,SW,222,4.0,12.0,48,0.00,,,0.01,235.000000,,2013-02-17 21:01:00,
2013-02-17 14:11:00,40.0,22.0,-100.00,SW,222,4.0,12.0,48,0.00,,,0.01,235.000000,,2013-02-17 21:11:00,
2013-02-17 14:42:00,40.0,23.0,-100.00,WNW,302,8.0,17.0,50,0.00,,,0.01,276.000000,,2013-02-17 21:42:00,
2013-02-17 14:53:00,40.0,23.0,-100.00,WNW,302,8.0,17.0,50,0.00,,,0.01,276.000000,,2013-02-17 21:53:00,
2013-02-17 15:01:00,40.0,23.0,-100.00,WNW,302,8.0,17.0,50,0.00,,,0.01,276.000000,,2013-02-17 22:01:00,
2013-02-17 15:11:00,40.0,23.0,-100.00,WNW,302,8.0,17.0,50,0.00,,,0.01,276.000000,,2013-02-17 22:11:00,
2013-02-17 15:32:00,40.0,21.0,-100.00,WNW,282,6.0,15.0,46,0.00,,,0.01,240.000000,,2013-02-17 22:32:00,
2013-02-17 15:42:00,40.0,21.0,-100.00,WNW,282,6.0,15.0,46,0.00,,,0.01,240.000000,,2013-02-17 22:42:00,
2013-02-17 15:52:00,40.0,21.0,-100.00,WNW,282,6.0,15.0,46,0.00,,,0.01,240.000000,,2013-02-17 22:52:00,
2013-02-17 16:01:00,40.0,21.0,-100.00,WNW,282,6.0,15.0,46,0.00,,,0.01,240.000000,,2013-02-17 23:01:00,
2013-02-17 16:11:00,40.0,21.0,-100.00,WNW,282,6.0,15.0,46,0.00,,,0.01,240.000000,,2013-02-17 23:11:00,
2013-02-17 16:42:00,40.0,16.0,-100.00,WNW,295,7.0,13.0,37,0.00,,,0.01,305.000000,,2013-02-17 23:42:00,
2013-02-17 16:52:00,40.0,16.0,-100.00,WNW,295,7.0,13.0,37,0.00,,,0.01,305.000000,,2013-02-17 23:52:00,
2013-02-17 17:01:00,40.0,16.0,-100.00,WNW,295,7.0,13.0,37,0.00,,,0.01,305.000000,,2013-02-18 00:01:00,
2013-02-17 17:42:00,37.0,23.0,-100.00,West,277,8.0,13.0,56,0.00,,,0.01,118.000000,,2013-02-18 00:42:00,
2013-02-17 17:52:00,37.0,23.0,-100.00,West,277,8.0,13.0,56,0.00,,,0.01,118.000000,,2013-02-18 00:52:00,
2013-02-17 18:01:00,37.0,23.0,-100.00,West,277,8.0,13.0,56,0.00,,,0.01,118.000000,,2013-02-18 01:01:00,
2013-02-17 18:11:00,37.0,23.0,-100.00,West,277,8.0,13.0,56,0.00,,,0.01,118.000000,,2013-02-18 01:11:00,
2013-02-17 19:42:00,35.0,16.0,-100.00,WNW,282,7.0,14.0,45,-99.99,,,0.01,0.000000,,2013-02-18 02:42:00,
2013-02-17 19:52:00,35.0,16.0,-100.00,WNW,282,7.0,14.0,45,-99.99,,,0.01,0.000000,,2013-02-18 02:52:00,
2013-02-17 20:01:00,35.0,16.0,-100.00,WNW,282,7.0,14.0,45,-99.99,,,0.01,0.000000,,2013-02-18 03:01:00,
2013-02-17 20:32:00,32.0,15.0,-100.00,NNW,340,2.0,9.0,50,0.00,,,0.01,0.000000,,2013-02-18 03:32:00,
2013-02-17 20:42:00,32.0,15.0,-100.00,NNW,340,2.0,9.0,50,0.00,,,0.01,0.000000,,2013-02-18 03:42:00,
2013-02-17 20:52:00,32.0,15.0,-100.00,NNW,340,2.0,9.0,50,0.00,,,0.01,0.000000,,2013-02-18 03:52:00,
2013-02-17 21:01:00,32.0,15.0,-100.00,NNW,340,2.0,9.0,50,0.00,,,0.01,0.000000,,2013-02-18 04:01:00,
2013-02-17 21:42:00,34.0,20.0,-100.00,SSW,203,4.0,9.0,56,0.00,,,0.00,0.000000,,2013-02-18 04:42:00,
2013-02-17 21:52:00,34.0,20.0,-100.00,SSW,203,4.0,9.0,56,0.00,,,0.00,0.000000,,2013-02-18 04:52:00,
2013-02-17 22:01:00,34.0,20.0,-100.00,SSW,203,4.0,9.0,56,0.00,,,0.00,0.000000,,2013-02-18 05:01:00,
2013-02-17 22:11:00,34.0,20.0,-100.00,SSW,203,4.0,9.0,56,0.00,,,0.00,0.000000,,2013-02-18 05:11:00,
2013-02-17 22:32:00,33.0,21.0,-100.00,South,182,2.0,9.0,62,0.00,,,0.00,0.000000,,2013-02-18 05:32:00,
2013-02-17 22:42:00,33.0,21.0,-100.00,South,182,2.0,9.0,62,0.00,,,0.00,0.000000,,2013-02-18 05:42:00,
2013-02-17 22:52:00,33.0,21.0,-100.00,South,182,2.0,9.0,62,0.00,,,0.00,0.000000,,2013-02-18 05:52:00,
2013-02-17 23:02:00,33.0,21.0,-100.00,South,182,2.0,9.0,62,0.00,,,0.00,0.000000,,2013-02-18 06:02:00,
2013-02-17 23:11:00,33.0,21.0,-100.00,South,182,2.0,9.0,62,0.00,,,0.00,0.000000,,2013-02-18 06:11:00,
2013-02-17 23:42:00,31.0,21.0,-100.00,SE,129,1.0,4.0,67,0.00,,,0.00,0.000000,,2013-02-18 06:42:00,
2013-02-17 23:52:00,31.0,21.0,-100.00,SE,129,1.0,4.0,67,0.00,,,0.00,0.000000,,2013-02-18 06:52:00,